Powrót do katalogu

FENGYUN 1C DEB

LostPO
NORAD 37080·DEBRIS·🇨🇳 China

Wystrzelony May 10, 1999 z Taiyuan Satellite Launch Center

Loading…

Następne Przeloty (najbliższe 24 godziny)

TLE

NieaktualneSource: Space-Track

Epoka: Oct 21, 2022, 13:45 UTC

1 37080U 99025EFQ 22294.57327019  .00004643  00000-0  25234-2 0  9991
2 37080  98.1635  62.0622 0167575 139.4318 221.9483 14.05794091716834

Śledź FENGYUN 1C DEB w czasie rzeczywistym z AllMySat

Download on the App Store